Time,TemperatureF,DewpointF,PressureIn,WindDirection,WindDirectionDegrees,WindSpeedMPH,WindSpeedGustMPH,Humidity,HourlyPrecipIn,Conditions,Clouds,dailyrainin,SolarRadiationWatts/m^2,SoftwareType,DateUTC
2013-03-23 00:03:00,22.3,17.6,30.14,NNE,30,0.0,0.0,82,0.00,,---,0.00,0.00,VWS V14.01,2013-03-23 05:03:00,
2013-03-23 00:08:00,21.6,17.0,30.14,NNE,30,0.0,0.0,82,0.00,,---,0.00,0.00,VWS V14.01,2013-03-23 05:08:00,
2013-03-23 00:14:00,21.0,16.7,30.14,NNE,30,0.0,0.0,83,0.00,,---,0.00,0.00,VWS V14.01,2013-03-23 05:14:00,
2013-03-23 00:20:00,20.6,16.5,30.14,NNE,30,0.0,0.0,84,0.00,,---,0.00,0.00,VWS V14.01,2013-03-23 05:20:00,
2013-03-23 00:26:00,20.4,16.4,30.14,NNE,30,0.0,0.0,84,0.00,,---,0.00,0.00,VWS V14.01,2013-03-23 05:26:00,
2013-03-23 00:32:00,20.3,16.5,30.14,NNE,30,0.0,0.0,85,0.00,,---,0.00,0.00,VWS V14.01,2013-03-23 05:32:00,
2013-03-23 00:38:00,20.3,16.5,30.13,NNE,30,0.0,0.0,85,0.00,,---,0.00,0.00,VWS V14.01,2013-03-23 05:38:00,
2013-03-23 00:45:00,20.4,16.6,30.13,NNE,30,0.0,0.0,85,0.00,,---,0.00,0.00,VWS V14.01,2013-03-23 05:45:00,
2013-03-23 00:52:00,20.6,16.5,30.12,NNE,30,0.0,0.0,84,0.00,,---,0.00,0.00,VWS V14.01,2013-03-23 05:52:00,
2013-03-23 00:57:00,20.8,16.5,30.13,NNE,30,0.0,0.0,83,0.00,,---,0.00,0.00,VWS V14.01,2013-03-23 05:57:00,
2013-03-23 01:02:00,20.9,16.6,30.14,NNE,30,0.0,0.0,83,0.00,,---,0.00,0.00,VWS V14.01,2013-03-23 06:02:00,
2013-03-23 01:08:00,20.8,16.5,30.15,NNE,30,0.0,0.0,83,0.00,,---,0.00,0.00,VWS V14.01,2013-03-23 06:08:00,
2013-03-23 01:13:00,20.8,16.5,30.15,NNE,30,0.0,0.0,83,0.00,,---,0.00,0.00,VWS V14.01,2013-03-23 06:13:00,
2013-03-23 01:20:00,20.8,16.7,30.15,NNE,30,0.0,0.0,84,0.00,,---,0.00,0.00,VWS V14.01,2013-03-23 06:20:00,
2013-03-23 01:28:00,20.8,16.7,30.15,NNE,30,0.0,0.0,84,0.00,,---,0.00,0.00,VWS V14.01,2013-03-23 06:28:00,
2013-03-23 01:35:00,20.7,16.6,30.15,NNE,30,0.0,0.0,84,0.00,,---,0.00,0.00,VWS V14.01,2013-03-23 06:35:00,
2013-03-23 01:41:00,20.7,16.6,30.17,NNE,30,0.0,0.0,84,0.00,,---,0.00,0.00,VWS V14.01,2013-03-23 06:41:00,
2013-03-23 01:47:00,20.7,16.6,30.16,NNE,30,0.0,0.0,84,0.00,,---,0.00,0.00,VWS V14.01,2013-03-23 06:47:00,
2013-03-23 02:00:00,20.6,16.8,30.16,NNE,30,0.0,0.0,85,0.00,,---,0.00,0.00,VWS V14.01,2013-03-23 07:00:00,
2013-03-23 02:06:00,20.6,16.8,30.17,WNW,303,5.0,6.0,85,0.00,,---,0.00,0.00,VWS V14.01,2013-03-23 07:06:00,
2013-03-23 02:11:00,20.5,17.0,30.16,WNW,302,4.0,6.0,86,0.00,,---,0.00,0.00,VWS V14.01,2013-03-23 07:11:00,
2013-03-23 02:18:00,20.7,17.2,30.15,WNW,302,4.0,6.0,86,0.00,,---,0.00,0.00,VWS V14.01,2013-03-23 07:18:00,
2013-03-23 02:24:00,20.6,17.1,30.14,WNW,302,3.0,4.0,86,0.00,,---,0.00,0.00,VWS V14.01,2013-03-23 07:24:00,
2013-03-23 02:30:00,20.4,17.2,30.16,WNW,302,5.0,5.0,87,0.00,,---,0.00,0.00,VWS V14.01,2013-03-23 07:30:00,
2013-03-23 02:36:00,20.3,17.1,30.16,WNW,302,6.0,6.0,87,0.00,,---,0.00,0.00,VWS V14.01,2013-03-23 07:36:00,
2013-03-23 02:43:00,20.3,17.1,30.17,WNW,302,5.0,7.0,87,0.00,,---,0.00,0.00,VWS V14.01,2013-03-23 07:43:00,
2013-03-23 02:49:00,20.5,17.2,30.17,WNW,302,2.0,3.0,87,0.00,,---,0.00,0.00,VWS V14.01,2013-03-23 07:49:00,
2013-03-23 02:56:00,20.6,17.4,30.17,WNW,302,3.0,5.0,87,0.00,,---,0.00,0.00,VWS V14.01,2013-03-23 07:56:00,
2013-03-23 03:02:00,20.7,17.5,30.17,WNW,302,4.0,6.0,87,0.00,,---,0.00,0.00,VWS V14.01,2013-03-23 08:02:00,
2013-03-23 03:08:00,20.6,17.4,30.17,WNW,302,3.0,5.0,87,0.00,,---,0.00,0.00,VWS V14.01,2013-03-23 08:08:00,
2013-03-23 03:14:00,20.6,17.4,30.17,WNW,302,3.0,5.0,87,0.00,,---,0.00,0.00,VWS V14.01,2013-03-23 08:14:00,
2013-03-23 03:20:00,20.6,17.4,30.17,WNW,302,3.0,6.0,87,0.00,,---,0.00,0.00,VWS V14.01,2013-03-23 08:20:00,
2013-03-23 03:25:00,20.4,17.2,30.17,WNW,302,5.0,7.0,87,0.00,,---,0.00,0.00,VWS V14.01,2013-03-23 08:25:00,
2013-03-23 03:31:00,20.4,17.2,30.18,WNW,302,5.0,7.0,87,0.00,,---,0.00,0.00,VWS V14.01,2013-03-23 08:31:00,
2013-03-23 03:36:00,20.4,17.2,30.19,WNW,302,4.0,5.0,87,0.00,,---,0.00,0.00,VWS V14.01,2013-03-23 08:36:00,
2013-03-23 03:42:00,20.3,17.1,30.19,WNW,294,6.0,9.0,87,0.00,,---,0.00,0.00,VWS V14.01,2013-03-23 08:42:00,
2013-03-23 03:47:00,20.3,17.1,30.19,WNW,290,5.0,9.0,87,0.00,,---,0.00,0.00,VWS V14.01,2013-03-23 08:47:00,
2013-03-23 03:52:00,20.3,17.1,30.19,WNW,290,6.0,7.0,87,0.00,,---,0.00,0.00,VWS V14.01,2013-03-23 08:52:00,
2013-03-23 03:57:00,20.2,17.0,30.19,WNW,290,5.0,7.0,87,0.00,,---,0.00,0.00,VWS V14.01,2013-03-23 08:57:00,
2013-03-23 04:02:00,20.2,17.0,30.20,WNW,290,6.0,9.0,87,0.00,,---,0.00,0.00,VWS V14.01,2013-03-23 09:02:00,
2013-03-23 04:07:00,20.2,17.0,30.20,WNW,289,5.0,9.0,87,0.00,,---,0.00,0.00,VWS V14.01,2013-03-23 09:07:00,
2013-03-23 04:15:00,20.0,16.8,30.20,WNW,288,6.0,9.0,87,0.00,,---,0.00,0.00,VWS V14.01,2013-03-23 09:15:00,
2013-03-23 04:21:00,20.0,16.8,30.20,WNW,289,6.0,6.0,87,0.00,,---,0.00,0.00,VWS V14.01,2013-03-23 09:21:00,
2013-03-23 04:28:00,19.9,16.7,30.20,WNW,288,6.0,9.0,87,0.00,,---,0.00,0.00,VWS V14.01,2013-03-23 09:28:00,
2013-03-23 04:35:00,19.7,16.5,30.20,WNW,288,5.0,7.0,87,0.00,,---,0.00,0.00,VWS V14.01,2013-03-23 09:35:00,
2013-03-23 04:40:00,19.7,16.5,30.19,WNW,288,4.0,7.0,87,0.00,,---,0.00,0.00,VWS V14.01,2013-03-23 09:40:00,
2013-03-23 04:46:00,19.7,16.5,30.19,WNW,288,3.0,7.0,87,0.00,,---,0.00,0.00,VWS V14.01,2013-03-23 09:46:00,
2013-03-23 04:52:00,19.3,16.1,30.18,WNW,289,2.0,5.0,87,0.00,,---,0.00,0.00,VWS V14.01,2013-03-23 09:52:00,
2013-03-23 04:57:00,19.1,15.9,30.18,WNW,289,3.0,5.0,87,0.00,,---,0.00,0.00,VWS V14.01,2013-03-23 09:57:00,
2013-03-23 05:03:00,18.9,15.7,30.17,WNW,289,4.0,5.0,87,0.00,,---,0.00,0.00,VWS V14.01,2013-03-23 10:03:00,
2013-03-23 05:10:00,18.8,15.6,30.17,WNW,289,0.0,4.0,87,0.00,,---,0.00,0.00,VWS V14.01,2013-03-23 10:10:00,
2013-03-23 05:15:00,18.6,15.4,30.18,WNW,289,0.0,4.0,87,0.00,,---,0.00,0.00,VWS V14.01,2013-03-23 10:15:00,
2013-03-23 05:23:00,18.3,15.1,30.18,WNW,289,0.0,0.0,87,0.00,,---,0.00,0.00,VWS V14.01,2013-03-23 10:23:00,
2013-03-23 05:29:00,18.2,15.2,30.17,WNW,288,0.0,0.0,88,0.00,,---,0.00,0.00,VWS V14.01,2013-03-23 10:29:00,
2013-03-23 05:35:00,18.1,15.1,30.17,WNW,288,0.0,0.0,88,0.00,,---,0.00,0.00,VWS V14.01,2013-03-23 10:35:00,
2013-03-23 05:41:00,17.7,14.8,30.17,WNW,289,0.0,0.0,88,0.00,,---,0.00,0.00,VWS V14.01,2013-03-23 10:41:00,
2013-03-23 05:46:00,17.4,14.2,30.16,WNW,289,0.0,0.0,87,0.00,,---,0.00,0.00,VWS V14.01,2013-03-23 10:46:00,
2013-03-23 05:51:00,17.3,14.4,30.16,WNW,288,0.0,0.0,88,0.00,,---,0.00,0.00,VWS V14.01,2013-03-23 10:51:00,
2013-03-23 05:57:00,17.2,14.3,30.17,WNW,288,0.0,0.0,88,0.00,,---,0.00,0.00,VWS V14.01,2013-03-23 10:57:00,
2013-03-23 06:02:00,17.1,14.2,30.17,WNW,289,0.0,0.0,88,0.00,,---,0.00,0.00,VWS V14.01,2013-03-23 11:02:00,
2013-03-23 06:08:00,17.1,14.2,30.17,WNW,289,0.0,0.0,88,0.00,,---,0.00,0.00,VWS V14.01,2013-03-23 11:08:00,
2013-03-23 06:13:00,17.1,14.2,30.17,WNW,288,0.0,0.0,88,0.00,,---,0.00,0.00,VWS V14.01,2013-03-23 11:13:00,
2013-03-23 06:18:00,17.1,14.2,30.17,WNW,288,0.0,0.0,88,0.00,,---,0.00,0.00,VWS V14.01,2013-03-23 11:18:00,
2013-03-23 06:24:00,17.1,14.2,30.18,WNW,288,0.0,0.0,88,0.00,,---,0.00,0.00,VWS V14.01,2013-03-23 11:24:00,
2013-03-23 06:29:00,17.0,14.1,30.18,WNW,288,0.0,0.0,88,0.00,,---,0.00,0.00,VWS V14.01,2013-03-23 11:29:00,
2013-03-23 06:35:00,16.9,14.0,30.18,WNW,288,0.0,0.0,88,0.00,,---,0.00,0.00,VWS V14.01,2013-03-23 11:35:00,
2013-03-23 06:40:00,16.9,14.0,30.18,WNW,289,0.0,0.0,88,0.00,,---,0.00,0.00,VWS V14.01,2013-03-23 11:40:00,
2013-03-23 06:47:00,16.9,14.0,30.18,WNW,289,0.0,0.0,88,0.00,,---,0.00,0.00,VWS V14.01,2013-03-23 11:47:00,
2013-03-23 06:52:00,16.9,14.0,30.18,WNW,289,0.0,0.0,88,0.00,,---,0.00,0.00,VWS V14.01,2013-03-23 11:52:00,
2013-03-23 06:59:00,16.9,14.0,30.19,WNW,289,0.0,0.0,88,0.00,,---,0.00,0.00,VWS V14.01,2013-03-23 11:59:00,
2013-03-23 07:04:00,16.8,13.9,30.19,WNW,289,0.0,0.0,88,0.00,,---,0.00,0.00,VWS V14.01,2013-03-23 12:04:00,
2013-03-23 07:10:00,16.8,13.9,30.20,WNW,288,0.0,0.0,88,0.00,,---,0.00,0.00,VWS V14.01,2013-03-23 12:10:00,
2013-03-23 07:16:00,16.8,13.9,30.20,WNW,289,0.0,0.0,88,0.00,,---,0.00,0.00,VWS V14.01,2013-03-23 12:16:00,
2013-03-23 07:22:00,16.9,14.0,30.20,WNW,289,0.0,0.0,88,0.00,,---,0.00,5.00,VWS V14.01,2013-03-23 12:22:00,
2013-03-23 07:28:00,16.9,14.0,30.20,WNW,289,0.0,0.0,88,0.00,,---,0.00,11.00,VWS V14.01,2013-03-23 12:28:00,
2013-03-23 07:33:00,16.9,13.7,30.21,WNW,289,0.0,0.0,87,0.00,,---,0.00,21.00,VWS V14.01,2013-03-23 12:33:00,
2013-03-23 07:38:00,16.9,13.7,30.22,WNW,289,0.0,0.0,87,0.00,,---,0.00,35.00,VWS V14.01,2013-03-23 12:38:00,
2013-03-23 07:44:00,17.1,13.9,30.23,WNW,288,0.0,0.0,87,0.00,,---,0.00,39.00,VWS V14.01,2013-03-23 12:44:00,
2013-03-23 07:49:00,17.1,13.9,30.21,WNW,289,0.0,0.0,87,0.00,,---,0.00,39.00,VWS V14.01,2013-03-23 12:49:00,
2013-03-23 07:55:00,17.3,14.1,30.21,WNW,289,0.0,0.0,87,0.00,,---,0.00,54.00,VWS V14.01,2013-03-23 12:55:00,
2013-03-23 08:00:00,17.6,14.4,30.20,WNW,289,0.0,0.0,87,0.00,,---,0.00,53.00,VWS V14.01,2013-03-23 13:00:00,
2013-03-23 08:05:00,17.7,14.5,30.19,WNW,290,5.0,6.0,87,0.00,,---,0.00,58.00,VWS V14.01,2013-03-23 13:05:00,
2013-03-23 08:11:00,17.9,14.7,30.20,WNW,290,4.0,6.0,87,0.00,,---,0.00,76.00,VWS V14.01,2013-03-23 13:11:00,
2013-03-23 08:18:00,18.0,14.8,30.21,WNW,290,6.0,7.0,87,0.00,,---,0.00,97.00,VWS V14.01,2013-03-23 13:18:00,
2013-03-23 08:25:00,18.1,14.9,30.20,NW,314,5.0,9.0,87,0.00,,---,0.00,105.00,VWS V14.01,2013-03-23 13:25:00,
2013-03-23 08:30:00,18.3,14.8,30.20,NW,311,6.0,9.0,86,0.00,,---,0.00,118.00,VWS V14.01,2013-03-23 13:30:00,
2013-03-23 08:35:00,18.5,15.0,30.20,NW,311,5.0,6.0,86,0.00,,---,0.00,144.00,VWS V14.01,2013-03-23 13:35:00,
2013-03-23 08:44:00,18.9,15.1,30.20,NW,311,6.0,9.0,85,0.00,,---,0.00,181.00,VWS V14.01,2013-03-23 13:44:00,
2013-03-23 08:49:00,19.1,15.3,30.21,NW,311,6.0,7.0,85,0.00,,---,0.00,181.00,VWS V14.01,2013-03-23 13:49:00,
2013-03-23 08:54:00,19.3,15.5,30.20,NW,311,6.0,7.0,85,0.00,,---,0.00,206.00,VWS V14.01,2013-03-23 13:54:00,
2013-03-23 09:00:00,19.5,15.7,30.20,NW,311,6.0,7.0,85,0.00,,---,0.00,202.00,VWS V14.01,2013-03-23 14:00:00,
2013-03-23 09:05:00,19.7,15.9,30.20,NW,311,7.0,8.0,85,0.00,,---,0.00,200.00,VWS V14.01,2013-03-23 14:05:00,
2013-03-23 09:12:00,20.0,15.9,30.21,NW,311,7.0,9.0,84,0.00,,---,0.00,230.00,VWS V14.01,2013-03-23 14:12:00,
2013-03-23 09:18:00,20.3,16.5,30.20,NW,313,6.0,9.0,85,0.00,,---,0.00,272.00,VWS V14.01,2013-03-23 14:18:00,
2013-03-23 09:23:00,20.7,16.9,30.21,NW,305,10.0,10.0,85,0.00,,---,0.00,309.00,VWS V14.01,2013-03-23 14:23:00,
2013-03-23 09:29:00,21.2,17.4,30.21,WNW,302,7.0,10.0,85,0.00,,---,0.00,327.00,VWS V14.01,2013-03-23 14:29:00,
2013-03-23 09:34:00,21.6,17.8,30.22,WNW,301,10.0,11.0,85,0.00,,---,0.00,329.00,VWS V14.01,2013-03-23 14:34:00,
2013-03-23 09:41:00,22.0,18.2,30.22,WNW,294,11.0,11.0,85,0.00,,---,0.00,316.00,VWS V14.01,2013-03-23 14:41:00,
2013-03-23 09:46:00,22.1,18.0,30.21,WNW,298,8.0,12.0,84,0.00,,---,0.00,322.00,VWS V14.01,2013-03-23 14:46:00,
2013-03-23 09:53:00,22.3,17.9,30.21,NW,307,12.0,12.0,83,0.00,,---,0.00,350.00,VWS V14.01,2013-03-23 14:53:00,
2013-03-23 10:03:00,22.5,17.9,30.21,WNW,292,9.0,12.0,82,0.00,,---,0.00,352.00,VWS V14.01,2013-03-23 15:03:00,
2013-03-23 10:10:00,22.5,17.9,30.21,NW,304,10.0,13.0,82,0.00,,---,0.00,304.00,VWS V14.01,2013-03-23 15:10:00,
2013-03-23 10:17:00,22.5,18.1,30.21,NW,306,12.0,13.0,83,0.00,,---,0.00,306.00,VWS V14.01,2013-03-23 15:17:00,
2013-03-23 10:23:00,22.5,17.9,30.21,WNW,302,11.0,11.0,82,0.00,,---,0.00,318.00,VWS V14.01,2013-03-23 15:23:00,
2013-03-23 10:29:00,22.5,17.6,30.21,NW,307,9.0,12.0,81,0.00,,---,0.00,350.00,VWS V14.01,2013-03-23 15:29:00,
2013-03-23 10:37:00,23.0,18.3,30.21,NW,309,10.0,10.0,82,0.00,,---,0.00,369.00,VWS V14.01,2013-03-23 15:37:00,
2013-03-23 10:43:00,23.1,18.1,30.21,WNW,303,6.0,12.0,81,0.00,,---,0.00,387.00,VWS V14.01,2013-03-23 15:43:00,
2013-03-23 10:48:00,23.3,18.3,30.22,WNW,302,10.0,12.0,81,0.00,,---,0.00,385.00,VWS V14.01,2013-03-23 15:48:00,
2013-03-23 10:54:00,23.6,18.6,30.22,NW,316,9.0,10.0,81,0.00,,---,0.00,392.00,VWS V14.01,2013-03-23 15:54:00,
2013-03-23 10:59:00,23.8,18.5,30.21,NW,311,9.0,10.0,80,0.00,,---,0.00,383.00,VWS V14.01,2013-03-23 15:59:00,
2013-03-23 11:05:00,24.0,18.7,30.22,NW,309,7.0,10.0,80,0.00,,---,0.00,371.00,VWS V14.01,2013-03-23 16:05:00,
2013-03-23 11:10:00,24.1,18.5,30.21,NW,310,6.0,10.0,79,0.00,,---,0.00,350.00,VWS V14.01,2013-03-23 16:10:00,
2013-03-23 11:17:00,24.4,18.5,30.21,NW,315,10.0,10.0,78,0.00,,---,0.00,338.00,VWS V14.01,2013-03-23 16:17:00,
2013-03-23 11:23:00,24.7,19.1,30.21,NNW,329,9.0,10.0,79,0.00,,---,0.00,339.00,VWS V14.01,2013-03-23 16:23:00,
2013-03-23 11:28:00,24.9,19.0,30.21,NNW,338,11.0,12.0,78,0.00,,---,0.00,336.00,VWS V14.01,2013-03-23 16:28:00,
2013-03-23 11:33:00,25.0,18.8,30.22,NW,325,9.0,12.0,77,0.00,,---,0.00,341.00,VWS V14.01,2013-03-23 16:33:00,
2013-03-23 11:41:00,25.3,19.4,30.22,NW,318,8.0,12.0,78,0.00,,---,0.00,334.00,VWS V14.01,2013-03-23 16:41:00,
2013-03-23 11:46:00,25.5,19.9,30.22,NW,310,9.0,12.0,79,0.00,,---,0.00,341.00,VWS V14.01,2013-03-23 16:46:00,
2013-03-23 11:54:00,25.7,19.8,30.22,NNW,340,11.0,11.0,78,0.00,,---,0.00,352.00,VWS V14.01,2013-03-23 16:54:00,
2013-03-23 11:59:00,25.8,19.9,30.22,NNW,340,10.0,11.0,78,0.00,,---,0.00,373.00,VWS V14.01,2013-03-23 16:59:00,
2013-03-23 12:08:00,25.9,20.0,30.22,NNW,333,5.0,10.0,78,0.00,,---,0.00,403.00,VWS V14.01,2013-03-23 17:08:00,
2013-03-23 12:17:00,25.9,20.0,30.22,NNW,331,7.0,10.0,78,0.00,,---,0.00,374.00,VWS V14.01,2013-03-23 17:17:00,
2013-03-23 12:24:00,25.8,19.9,30.21,NNW,327,7.0,9.0,78,0.00,,---,0.00,362.00,VWS V14.01,2013-03-23 17:24:00,
2013-03-23 12:29:00,25.8,19.9,30.21,NNW,328,9.0,10.0,78,0.00,,---,0.00,397.00,VWS V14.01,2013-03-23 17:29:00,
2013-03-23 12:34:00,25.9,20.0,30.21,NNW,327,7.0,7.0,78,0.00,,---,0.00,422.00,VWS V14.01,2013-03-23 17:34:00,
2013-03-23 12:40:00,26.0,19.8,30.21,NW,324,7.0,10.0,77,0.00,,---,0.00,417.00,VWS V14.01,2013-03-23 17:40:00,
2013-03-23 12:47:00,26.2,19.7,30.21,NW,318,7.0,10.0,76,0.00,,---,0.00,411.00,VWS V14.01,2013-03-23 17:47:00,
2013-03-23 12:55:00,26.3,19.8,30.21,NW,317,6.0,9.0,76,0.00,,---,0.00,362.00,VWS V14.01,2013-03-23 17:55:00,
2013-03-23 13:00:00,26.4,19.6,30.21,NW,318,4.0,9.0,75,0.00,,---,0.00,339.00,VWS V14.01,2013-03-23 18:00:00,
2013-03-23 13:06:00,26.4,19.6,30.21,NW,317,6.0,6.0,75,0.00,,---,0.00,327.00,VWS V14.01,2013-03-23 18:06:00,
2013-03-23 13:11:00,26.5,19.4,30.21,NW,317,3.0,8.0,74,0.00,,---,0.00,325.00,VWS V14.01,2013-03-23 18:11:00,
2013-03-23 13:16:00,26.6,19.4,30.21,NW,317,5.0,8.0,74,0.00,,---,0.00,320.00,VWS V14.01,2013-03-23 18:16:00,
2013-03-23 13:27:00,26.9,20.0,30.21,NW,317,7.0,7.0,75,0.00,,---,0.00,316.00,VWS V14.01,2013-03-23 18:27:00,
2013-03-23 13:32:00,26.9,20.0,30.20,NW,315,4.0,7.0,75,0.00,,---,0.00,327.00,VWS V14.01,2013-03-23 18:32:00,
2013-03-23 13:37:00,26.8,19.6,30.20,NW,314,5.0,7.0,74,0.00,,---,0.00,343.00,VWS V14.01,2013-03-23 18:37:00,
2013-03-23 13:43:00,26.9,19.7,30.20,NW,316,4.0,8.0,74,0.00,,---,0.00,371.00,VWS V14.01,2013-03-23 18:43:00,
2013-03-23 13:48:00,27.0,19.8,30.20,NW,316,4.0,8.0,74,0.00,,---,0.00,376.00,VWS V14.01,2013-03-23 18:48:00,
2013-03-23 13:53:00,27.1,19.9,30.20,NW,315,5.0,6.0,74,0.00,,---,0.00,383.00,VWS V14.01,2013-03-23 18:53:00,
2013-03-23 14:20:00,27.7,20.2,30.19,NW,306,7.0,10.0,73,0.00,,---,0.00,381.00,VWS V14.01,2013-03-23 19:20:00,
2013-03-23 14:25:00,27.7,20.2,30.18,NW,317,6.0,10.0,73,0.00,,---,0.00,381.00,VWS V14.01,2013-03-23 19:25:00,
2013-03-23 14:31:00,27.8,20.0,30.18,NNW,333,5.0,10.0,72,0.00,,---,0.00,376.00,VWS V14.01,2013-03-23 19:31:00,
2013-03-23 15:18:00,27.9,20.4,30.17,NW,315,6.0,7.0,73,0.00,,---,0.00,420.00,VWS V14.01,2013-03-23 20:18:00,
2013-03-23 15:23:00,27.9,20.4,30.18,NW,312,10.0,10.0,73,0.00,,---,0.00,378.00,VWS V14.01,2013-03-23 20:23:00,
2013-03-23 15:29:00,28.0,20.8,30.17,NW,318,6.0,11.0,74,0.00,,---,0.00,329.00,VWS V14.01,2013-03-23 20:29:00,
2013-03-23 15:34:00,28.0,20.5,30.17,NW,315,8.0,9.0,73,0.00,,---,0.00,327.00,VWS V14.01,2013-03-23 20:34:00,
2013-03-23 15:43:00,28.1,20.2,30.17,NW,319,12.0,16.0,72,0.00,,---,0.00,396.00,VWS V14.01,2013-03-23 20:43:00,
2013-03-23 15:48:00,28.1,20.6,30.17,NW,314,10.0,16.0,73,0.00,,---,0.00,457.00,VWS V14.01,2013-03-23 20:48:00,
2013-03-23 15:53:00,28.3,20.8,30.18,NW,314,11.0,13.0,73,0.00,,---,0.00,526.00,VWS V14.01,2013-03-23 20:53:00,
2013-03-23 16:00:00,28.4,20.5,30.18,NW,315,9.0,15.0,72,0.00,,---,0.00,473.00,VWS V14.01,2013-03-23 21:00:00,
2013-03-23 16:10:00,28.4,21.8,30.17,NW,309,11.0,14.0,76,0.00,,---,0.00,448.00,VWS V14.01,2013-03-23 21:10:00,
2013-03-23 16:16:00,28.4,19.9,30.17,NW,310,12.0,14.0,70,0.00,,---,0.00,367.00,VWS V14.01,2013-03-23 21:16:00,
2013-03-23 16:22:00,28.4,20.2,30.17,WNW,297,8.0,14.0,71,0.00,,---,0.00,501.00,VWS V14.01,2013-03-23 21:22:00,
2013-03-23 16:27:00,28.6,20.7,30.17,NW,311,7.0,14.0,72,0.00,,---,0.00,378.00,VWS V14.01,2013-03-23 21:27:00,
2013-03-23 16:35:00,28.7,20.5,30.17,NNW,332,10.0,12.0,71,0.00,,---,0.00,445.00,VWS V14.01,2013-03-23 21:35:00,
2013-03-23 16:41:00,28.7,20.2,30.17,NW,313,8.0,13.0,70,0.00,,---,0.00,482.00,VWS V14.01,2013-03-23 21:41:00,
2013-03-23 16:47:00,28.7,19.5,30.17,NNW,338,11.0,13.0,68,0.00,,---,0.00,455.00,VWS V14.01,2013-03-23 21:47:00,
2013-03-23 16:53:00,28.7,19.8,30.18,NW,315,9.0,11.0,69,0.00,,---,0.00,338.00,VWS V14.01,2013-03-23 21:53:00,
2013-03-23 17:00:00,28.8,20.6,30.18,NW,311,10.0,12.0,71,0.00,,---,0.00,352.00,VWS V14.01,2013-03-23 22:00:00,
2013-03-23 17:05:00,28.8,20.3,30.18,NW,315,12.0,13.0,70,0.00,,---,0.00,239.00,VWS V14.01,2013-03-23 22:05:00,
2013-03-23 17:10:00,28.5,20.0,30.18,NNW,331,13.0,14.0,70,0.00,,---,0.00,271.00,VWS V14.01,2013-03-23 22:10:00,
2013-03-23 17:15:00,28.5,20.3,30.18,NW,317,10.0,14.0,71,0.00,,---,0.00,274.00,VWS V14.01,2013-03-23 22:15:00,
2013-03-23 17:20:00,28.5,20.3,30.18,NW,318,9.0,13.0,71,0.00,,---,0.00,258.00,VWS V14.01,2013-03-23 22:20:00,
2013-03-23 17:27:00,28.4,20.2,30.18,NW,317,12.0,13.0,71,0.00,,---,0.00,221.00,VWS V14.01,2013-03-23 22:27:00,
2013-03-23 17:33:00,28.4,20.9,30.18,NW,317,14.0,14.0,73,0.00,,---,0.00,209.00,VWS V14.01,2013-03-23 22:33:00,
2013-03-23 17:38:00,28.3,20.4,30.17,NW,325,15.0,15.0,72,0.00,,---,0.00,188.00,VWS V14.01,2013-03-23 22:38:00,
2013-03-23 17:44:00,28.2,20.4,30.18,NNW,336,11.0,15.0,72,0.00,,---,0.00,178.00,VWS V14.01,2013-03-23 22:44:00,
2013-03-23 17:51:00,28.1,20.9,30.17,NW,323,12.0,13.0,74,0.00,,---,0.00,172.00,VWS V14.01,2013-03-23 22:51:00,
2013-03-23 18:02:00,28.0,20.8,30.17,NW,326,13.0,16.0,74,0.00,,---,0.00,153.00,VWS V14.01,2013-03-23 23:02:00,
2013-03-23 18:11:00,27.9,21.0,30.17,NNW,331,11.0,15.0,75,0.00,,---,0.00,141.00,VWS V14.01,2013-03-23 23:11:00,
2013-03-23 18:18:00,27.8,20.3,30.17,NNW,336,12.0,16.0,73,0.00,,---,0.00,120.00,VWS V14.01,2013-03-23 23:18:00,
2013-03-23 18:25:00,27.6,20.4,30.17,NW,322,14.0,16.0,74,0.00,,---,0.00,102.00,VWS V14.01,2013-03-23 23:25:00,
2013-03-23 18:31:00,27.5,20.0,30.17,NNW,329,12.0,17.0,73,0.00,,---,0.00,84.00,VWS V14.01,2013-03-23 23:31:00,
2013-03-23 18:36:00,27.3,20.1,30.18,NNW,329,13.0,16.0,74,0.00,,---,0.00,74.00,VWS V14.01,2013-03-23 23:36:00,
2013-03-23 18:45:00,27.2,19.7,30.18,NNW,336,13.0,17.0,73,0.00,,---,0.00,58.00,VWS V14.01,2013-03-23 23:45:00,
2013-03-23 18:50:00,27.2,20.0,30.18,NNW,327,10.0,14.0,74,0.00,,---,0.00,49.00,VWS V14.01,2013-03-23 23:50:00,
2013-03-23 18:58:00,27.0,19.2,30.18,NW,325,13.0,14.0,72,0.00,,---,0.00,39.00,VWS V14.01,2013-03-23 23:58:00,
2013-03-23 19:03:00,26.9,19.4,30.18,NNW,328,8.0,14.0,73,0.00,,---,0.00,32.00,VWS V14.01,2013-03-24 00:03:00,
2013-03-23 19:09:00,26.8,19.0,30.18,NW,316,12.0,15.0,72,0.00,,---,0.00,25.00,VWS V14.01,2013-03-24 00:09:00,
2013-03-23 19:14:00,26.7,18.9,30.18,NNW,329,13.0,15.0,72,0.00,,---,0.00,19.00,VWS V14.01,2013-03-24 00:14:00,
2013-03-23 19:23:00,26.4,18.6,30.18,NW,325,13.0,16.0,72,0.00,,---,0.00,11.00,VWS V14.01,2013-03-24 00:23:00,
2013-03-23 19:28:00,26.2,18.7,30.18,NW,323,10.0,16.0,73,0.00,,---,0.00,7.00,VWS V14.01,2013-03-24 00:28:00,
2013-03-23 19:34:00,26.1,19.3,30.18,NNW,329,11.0,13.0,75,0.00,,---,0.00,0.00,VWS V14.01,2013-03-24 00:34:00,
2013-03-23 19:42:00,25.8,19.3,30.19,NW,326,9.0,14.0,76,0.00,,---,0.00,0.00,VWS V14.01,2013-03-24 00:42:00,
2013-03-23 19:49:00,25.7,19.2,30.18,NW,321,10.0,11.0,76,0.00,,---,0.00,0.00,VWS V14.01,2013-03-24 00:49:00,
2013-03-23 19:55:00,25.7,19.5,30.19,NNW,329,9.0,12.0,77,0.00,,---,0.00,0.00,VWS V14.01,2013-03-24 00:55:00,
2013-03-23 20:00:00,25.6,19.4,30.19,NW,323,9.0,13.0,77,0.00,,---,0.00,0.00,VWS V14.01,2013-03-24 01:00:00,
2013-03-23 20:08:00,25.4,19.2,30.19,NW,321,9.0,13.0,77,0.00,,---,0.00,0.00,VWS V14.01,2013-03-24 01:08:00,
2013-03-23 20:13:00,25.4,19.2,30.19,NW,326,7.0,13.0,77,0.00,,---,0.00,0.00,VWS V14.01,2013-03-24 01:13:00,
2013-03-23 20:18:00,25.3,19.4,30.19,NW,325,8.0,13.0,78,0.00,,---,0.00,0.00,VWS V14.01,2013-03-24 01:18:00,
2013-03-23 20:24:00,25.2,19.3,30.19,NW,325,6.0,11.0,78,0.00,,---,0.00,0.00,VWS V14.01,2013-03-24 01:24:00,
2013-03-23 20:29:00,25.2,19.3,30.19,NW,325,6.0,11.0,78,0.00,,---,0.00,0.00,VWS V14.01,2013-03-24 01:29:00,
2013-03-23 20:34:00,25.1,19.2,30.19,NW,319,10.0,11.0,78,0.00,,---,0.00,0.00,VWS V14.01,2013-03-24 01:34:00,
2013-03-23 20:39:00,25.1,19.2,30.19,NW,315,7.0,14.0,78,0.00,,---,0.00,0.00,VWS V14.01,2013-03-24 01:39:00,
2013-03-23 20:47:00,25.0,19.1,30.19,NW,324,14.0,14.0,78,0.00,,---,0.00,0.00,VWS V14.01,2013-03-24 01:47:00,
2013-03-23 20:53:00,25.0,19.1,30.19,NW,316,10.0,15.0,78,0.00,,---,0.00,0.00,VWS V14.01,2013-03-24 01:53:00,
2013-03-23 20:58:00,24.9,19.3,30.19,NW,323,13.0,15.0,79,0.00,,---,0.00,0.00,VWS V14.01,2013-03-24 01:58:00,
2013-03-23 21:04:00,24.9,19.3,30.19,NW,319,9.0,11.0,79,0.00,,---,0.00,0.00,VWS V14.01,2013-03-24 02:04:00,
2013-03-23 21:09:00,24.8,19.2,30.19,NNW,327,11.0,14.0,79,0.00,,---,0.00,0.00,VWS V14.01,2013-03-24 02:09:00,
2013-03-23 21:16:00,24.8,18.9,30.19,NW,323,10.0,14.0,78,0.00,,---,0.00,0.00,VWS V14.01,2013-03-24 02:16:00,
2013-03-23 21:22:00,24.7,19.1,30.20,NW,317,10.0,12.0,79,0.00,,---,0.00,0.00,VWS V14.01,2013-03-24 02:22:00,
2013-03-23 21:28:00,24.6,19.0,30.20,NW,316,13.0,14.0,79,0.00,,---,0.00,0.00,VWS V14.01,2013-03-24 02:28:00,
2013-03-23 21:33:00,24.6,19.0,30.20,NW,319,8.0,14.0,79,0.00,,---,0.00,0.00,VWS V14.01,2013-03-24 02:33:00,
2013-03-23 21:38:00,24.5,18.9,30.20,NW,316,9.0,11.0,79,0.00,,---,0.00,0.00,VWS V14.01,2013-03-24 02:38:00,
2013-03-23 21:43:00,24.5,18.9,30.20,NW,322,7.0,12.0,79,0.00,,---,0.00,0.00,VWS V14.01,2013-03-24 02:43:00,
2013-03-23 21:50:00,24.4,19.1,30.20,NW,309,11.0,11.0,80,0.00,,---,0.00,0.00,VWS V14.01,2013-03-24 02:50:00,
2013-03-23 21:56:00,24.4,18.8,30.20,NW,312,13.0,15.0,79,0.00,,---,0.00,0.00,VWS V14.01,2013-03-24 02:56:00,
2013-03-23 22:01:00,24.3,18.7,30.20,NW,317,12.0,15.0,79,0.00,,---,0.00,0.00,VWS V14.01,2013-03-24 03:01:00,
2013-03-23 22:08:00,24.2,18.3,30.20,NW,310,12.0,15.0,78,0.00,,---,0.00,0.00,VWS V14.01,2013-03-24 03:08:00,
2013-03-23 22:13:00,24.1,18.2,30.20,NW,313,13.0,15.0,78,0.00,,---,0.00,0.00,VWS V14.01,2013-03-24 03:13:00,
2013-03-23 22:18:00,24.0,18.5,30.20,NW,313,16.0,16.0,79,0.00,,---,0.00,0.00,VWS V14.01,2013-03-24 03:18:00,
2013-03-23 22:24:00,23.9,18.4,30.20,NW,313,13.0,17.0,79,0.00,,---,0.00,0.00,VWS V14.01,2013-03-24 03:24:00,
2013-03-23 22:29:00,23.9,18.0,30.20,NW,317,12.0,17.0,78,0.00,,---,0.00,0.00,VWS V14.01,2013-03-24 03:29:00,
2013-03-23 22:34:00,23.8,18.2,30.20,NW,317,12.0,16.0,79,0.00,,---,0.00,0.00,VWS V14.01,2013-03-24 03:34:00,
2013-03-23 22:39:00,23.8,18.0,30.20,NW,317,11.0,18.0,78,0.00,,---,0.00,0.00,VWS V14.01,2013-03-24 03:39:00,
2013-03-23 22:44:00,23.7,17.9,30.20,NW,313,13.0,18.0,78,0.00,,---,0.00,0.00,VWS V14.01,2013-03-24 03:44:00,
2013-03-23 22:49:00,23.7,17.9,30.20,NW,325,11.0,12.0,78,0.00,,---,0.00,0.00,VWS V14.01,2013-03-24 03:49:00,
2013-03-23 22:55:00,23.6,17.8,30.20,NW,319,10.0,16.0,78,0.00,,---,0.00,0.00,VWS V14.01,2013-03-24 03:55:00,
2013-03-23 23:00:00,23.6,18.1,30.20,NW,316,13.0,16.0,79,0.00,,---,0.00,0.00,VWS V14.01,2013-03-24 04:00:00,
2013-03-23 23:01:00,23.6,18.1,30.20,NW,325,15.0,16.0,79,0.00,,---,0.00,0.00,VWS V14.01,2013-03-24 04:01:00,
2013-03-23 23:02:00,23.6,18.1,30.20,NW,318,9.0,16.0,79,0.00,,---,0.00,0.00,VWS V14.01,2013-03-24 04:02:00,
2013-03-23 23:03:00,23.6,18.1,30.20,NW,318,12.0,16.0,79,0.00,,---,0.00,0.00,VWS V14.01,2013-03-24 04:03:00,
2013-03-23 23:08:00,23.5,18.2,30.20,NW,312,9.0,15.0,80,0.00,,---,0.00,0.00,VWS V14.01,2013-03-24 04:08:00,
2013-03-23 23:13:00,23.5,18.2,30.20,NW,311,11.0,15.0,80,0.00,,---,0.00,0.00,VWS V14.01,2013-03-24 04:13:00,
2013-03-23 23:18:00,23.4,18.4,30.20,NW,311,14.0,16.0,81,0.00,,---,0.00,0.00,VWS V14.01,2013-03-24 04:18:00,
2013-03-23 23:23:00,23.4,18.4,30.19,NW,312,9.0,15.0,81,0.00,,---,0.00,0.00,VWS V14.01,2013-03-24 04:23:00,
2013-03-23 23:29:00,23.4,18.4,30.19,NW,313,13.0,18.0,81,0.00,,---,0.00,0.00,VWS V14.01,2013-03-24 04:29:00,
2013-03-23 23:35:00,23.4,18.4,30.19,NW,315,12.0,15.0,81,0.00,,---,0.00,0.00,VWS V14.01,2013-03-24 04:35:00,
2013-03-23 23:40:00,23.3,18.3,30.19,NW,311,11.0,15.0,81,0.00,,---,0.00,0.00,VWS V14.01,2013-03-24 04:40:00,
2013-03-23 23:45:00,23.2,18.5,30.19,NW,320,10.0,15.0,82,0.00,,---,0.00,0.00,VWS V14.01,2013-03-24 04:45:00,
2013-03-23 23:52:00,23.2,18.2,30.18,NW,317,9.0,15.0,81,0.00,,---,0.00,0.00,VWS V14.01,2013-03-24 04:52:00,
2013-03-23 23:58:00,23.1,18.4,30.18,NW,326,12.0,16.0,82,0.00,,---,0.00,0.00,VWS V14.01,2013-03-24 04:58:00,